Weather History for KHCO - May, 2012

Change the Weather History Date:

Thursday, May 10, 2012

  Actual Average Record
Temperature  
Mean Temperature 66 °F -  
Max Temperature 84 °F 65 °F 89 °F (1976)
Min Temperature 48 °F 40 °F 22 °F (1940)
Cooling Degree Days 1    
Growing Degree Days 16 (Base 50)    
Moisture  
Dew Point 44 °F    
Average Humidity 49    
Maximum Humidity 76    
Minimum Humidity 25    
Precipitation  
Precipitation 0.00 in - - ()
Sea Level Pressure  
Sea Level Pressure 29.69 in    
Wind  
Wind Speed 18 mph (South)    
Max Wind Speed 39 mph    
Max Gust Speed 54 mph    
Visibility 10 miles    
Events      
Averages and records for this station are not official NWS values.
T = Trace of Precipitation, MM = Missing Value Source: NWS Daily Summary

Daily Weather History Graph

Daily Weather History Graph

Search for Another Location

Airport or City:

Trip Planner

Search our weather history database for the weather conditions in past years. The results will help you decide how hot, cold, wet, or windy it might be!

Date:

Astronomy

May. 10, 2012 Rise Set
Actual Time 5:52 AM CDT 8:56 PM CDT
Civil Twilight 5:15 AM CDT 9:33 PM CDT
Nautical Twilight 4:27 AM CDT 10:22 PM CDT
Astronomical Twilight 3:28 AM CDT 11:22 PM CDT
Moon 12:57 AM CDT (5/10) 10:17 AM CDT (5/10)
Length of Visible Light 16h 18m
Length of Day
15h 04m
Waning Gibbous, 73% of the Moon is Illuminated
May 10
Waning Gibbous
May 12
Last Quarter
May 20
New
May 28
First Quarter
Jun 4
Full

Hourly Weather History & Observations

Time (CDT) Temp. Dew Point Humidity Pressure Visibility Wind Dir Wind Speed Gust Speed Precip Events Conditions
12:14 AM 50.0 °F 35.6 °F 58% 29.81 in 10.0 mi SSE 10.4 mph - N/A   Clear
12:34 AM 50.0 °F 35.6 °F 58% 29.80 in 10.0 mi SSE 11.5 mph - N/A   Clear
12:54 AM 50.0 °F 37.4 °F 62% 29.80 in 10.0 mi SSE 10.4 mph - N/A   Clear
1:14 AM 50.0 °F 37.4 °F 62% 29.80 in 10.0 mi SSE 11.5 mph - N/A   Clear
1:34 AM 50.0 °F 37.4 °F 62% 29.80 in 10.0 mi SSE 11.5 mph - N/A   Clear
1:54 AM 50.0 °F 37.4 °F 62% 29.79 in 10.0 mi SSE 11.5 mph - N/A   Clear
2:14 AM 48.2 °F 39.2 °F 71% 29.79 in 10.0 mi SSE 11.5 mph - N/A   Clear
2:34 AM 48.2 °F 39.2 °F 71% 29.78 in 10.0 mi SSE 11.5 mph - N/A   Clear
2:54 AM 48.2 °F 39.2 °F 71% 29.78 in 10.0 mi SSE 11.5 mph - N/A   Clear
3:14 AM 48.2 °F 39.2 °F 71% 29.77 in 10.0 mi SSE 12.7 mph - N/A   Clear
3:34 AM 48.2 °F 39.2 °F 71% 29.76 in 10.0 mi SSE 12.7 mph - N/A   Clear
3:54 AM 51.8 °F 41.0 °F 67% 29.77 in 10.0 mi South 13.8 mph - N/A   Clear
4:14 AM 51.8 °F 42.8 °F 71% 29.76 in 10.0 mi South 13.8 mph - N/A   Clear
4:34 AM 51.8 °F 42.8 °F 71% 29.76 in 10.0 mi South 16.1 mph - N/A   Clear
4:53 AM 51.8 °F 42.8 °F 71% 29.77 in 10.0 mi South 16.1 mph - N/A   Clear
5:14 AM 50.0 °F 42.8 °F 76% 29.76 in 10.0 mi South 15.0 mph - N/A   Clear
5:34 AM 50.0 °F 42.8 °F 76% 29.76 in 10.0 mi South 16.1 mph - N/A   Clear
5:54 AM 50.0 °F 42.8 °F 76% 29.76 in 10.0 mi South 15.0 mph - N/A   Clear
6:14 AM 50.0 °F 42.8 °F 76% 29.76 in 10.0 mi South 17.3 mph - N/A   Clear
6:34 AM 50.0 °F 42.8 °F 76% 29.75 in 10.0 mi South 17.3 mph - N/A   Clear
6:54 AM 50.0 °F 42.8 °F 76% 29.75 in 10.0 mi SSE 17.3 mph - N/A   Clear
7:14 AM 51.8 °F 44.6 °F 76% 29.75 in 10.0 mi SSE 18.4 mph - N/A   Clear
7:34 AM 53.6 °F 44.6 °F 72% 29.76 in 10.0 mi South 18.4 mph - N/A   Clear
7:54 AM 55.4 °F 44.6 °F 67% 29.76 in 10.0 mi South 20.7 mph 27.6 mph N/A   Clear
8:14 AM 57.2 °F 44.6 °F 63% 29.76 in 10.0 mi South 21.9 mph - N/A   Clear
8:34 AM 59.0 °F 46.4 °F 63% 29.75 in 10.0 mi South 23.0 mph 27.6 mph N/A   Clear
8:54 AM 60.8 °F 46.4 °F 59% 29.75 in 10.0 mi South 24.2 mph - N/A   Clear
9:14 AM 62.6 °F 46.4 °F 55% 29.74 in 10.0 mi South 20.7 mph - N/A   Clear
9:33 AM 64.4 °F 46.4 °F 52% 29.73 in 10.0 mi South 23.0 mph 26.5 mph N/A   Clear
9:54 AM 66.2 °F 46.4 °F 49% 29.73 in 10.0 mi South 25.3 mph 31.1 mph N/A   Clear
10:13 AM 68.0 °F 46.4 °F 46% 29.72 in 10.0 mi South 24.2 mph - N/A   Clear
10:34 AM 69.8 °F 44.6 °F 40% 29.71 in 10.0 mi South 24.2 mph 28.8 mph N/A   Clear
10:54 AM 69.8 °F 44.6 °F 40% 29.71 in 10.0 mi South 25.3 mph 31.1 mph N/A   Clear
11:13 AM 71.6 °F 44.6 °F 38% 29.71 in 10.0 mi South 26.5 mph 33.4 mph N/A   Clear
11:34 AM 73.4 °F 44.6 °F 36% 29.69 in 10.0 mi South 26.5 mph 33.4 mph N/A   Clear
11:54 AM 73.4 °F 44.6 °F 36% 29.68 in 10.0 mi South 25.3 mph 31.1 mph N/A   Clear
12:14 PM 75.2 °F 44.6 °F 34% 29.67 in 10.0 mi South 25.3 mph 31.1 mph N/A   Clear
12:34 PM 75.2 °F 46.4 °F 36% 29.67 in 10.0 mi South 24.2 mph 32.2 mph N/A   Clear
12:54 PM 77.0 °F 44.6 °F 32% 29.67 in 10.0 mi South 23.0 mph 34.5 mph N/A   Clear
1:13 PM 78.8 °F 46.4 °F 32% 29.65 in 10.0 mi South 24.2 mph 34.5 mph N/A   Clear
1:34 PM 80.6 °F 46.4 °F 30% 29.65 in 10.0 mi South 25.3 mph 34.5 mph N/A   Clear
1:54 PM 78.8 °F 44.6 °F 30% 29.64 in 10.0 mi South 26.5 mph 33.4 mph N/A   Clear
2:13 PM 80.6 °F 44.6 °F 28% 29.64 in 10.0 mi South 21.9 mph 32.2 mph N/A   Clear
2:34 PM 80.6 °F 44.6 °F 28% 29.63 in 10.0 mi South 24.2 mph 34.5 mph N/A   Clear
2:54 PM 82.4 °F 44.6 °F 26% 29.63 in 10.0 mi South 24.2 mph 33.4 mph N/A   Clear
3:14 PM 82.4 °F 44.6 °F 26% 29.62 in 10.0 mi South 26.5 mph 32.2 mph N/A   Clear
3:34 PM 82.4 °F 44.6 °F 26% 29.61 in 10.0 mi South 25.3 mph 33.4 mph N/A   Clear
3:54 PM 84.2 °F 46.4 °F 27% 29.60 in 10.0 mi South 20.7 mph 31.1 mph N/A   Clear
4:14 PM 84.2 °F 44.6 °F 25% 29.59 in 10.0 mi South 26.5 mph 34.5 mph N/A   Clear
4:34 PM 84.2 °F 46.4 °F 27% 29.59 in 10.0 mi South 24.2 mph 33.4 mph N/A   Clear
4:54 PM 84.2 °F 46.4 °F 27% 29.58 in 10.0 mi South 27.6 mph 34.5 mph N/A   Clear
5:14 PM 84.2 °F 46.4 °F 27% 29.58 in 10.0 mi South 25.3 mph 34.5 mph N/A   Clear
5:34 PM 84.2 °F 46.4 °F 27% 29.57 in 10.0 mi South 26.5 mph 35.7 mph N/A   Clear
5:54 PM 82.4 °F 46.4 °F 28% 29.57 in 10.0 mi South 32.2 mph 39.1 mph N/A   Clear
6:14 PM 82.4 °F 46.4 °F 28% 29.58 in 10.0 mi South 29.9 mph 35.7 mph N/A   Clear
6:34 PM 80.6 °F 46.4 °F 30% 29.58 in 10.0 mi South 27.6 mph 34.5 mph N/A   Clear
6:54 PM 80.6 °F 46.4 °F 30% 29.57 in 10.0 mi South 24.2 mph 32.2 mph N/A   Clear
7:14 PM 80.6 °F 46.4 °F 30% 29.58 in 10.0 mi South 23.0 mph 32.2 mph N/A   Clear
7:34 PM 78.8 °F 46.4 °F 32% 29.58 in 10.0 mi South 24.2 mph 29.9 mph N/A   Clear
7:54 PM 78.8 °F 46.4 °F 32% 29.58 in 10.0 mi South 19.6 mph 31.1 mph N/A   Clear
8:14 PM 78.8 °F 46.4 °F 32% 29.59 in 10.0 mi South 21.9 mph 26.5 mph N/A   Clear
8:34 PM 77.0 °F 46.4 °F 34% 29.59 in 10.0 mi South 19.6 mph 25.3 mph N/A   Clear
8:54 PM 75.2 °F 46.4 °F 36% 29.58 in 10.0 mi South 20.7 mph 24.2 mph N/A   Clear
9:14 PM 73.4 °F 46.4 °F 38% 29.58 in 10.0 mi SSE 16.1 mph - N/A   Clear
9:34 PM 73.4 °F 46.4 °F 38% 29.60 in 10.0 mi South 15.0 mph - N/A   Clear
9:54 PM 71.6 °F 46.4 °F 41% 29.61 in 10.0 mi South 17.3 mph - N/A   Scattered Clouds
10:13 PM 69.8 °F 46.4 °F 43% 29.66 in 7.0 mi NNW 39.1 mph 54.1 mph N/A   Mostly Cloudy
10:34 PM 62.6 °F 48.2 °F 59% 29.72 in 10.0 mi NNW 28.8 mph 39.1 mph N/A   Overcast
10:54 PM 60.8 °F 48.2 °F 63% 29.74 in 10.0 mi NW 29.9 mph 39.1 mph N/A   Overcast
11:14 PM 57.2 °F 46.4 °F 67% 29.76 in 10.0 mi NNW 29.9 mph 39.1 mph N/A   Overcast
11:34 PM 57.2 °F 46.4 °F 67% 29.78 in 10.0 mi NNW 24.2 mph 31.1 mph N/A   Overcast
11:54 PM 57.2 °F 44.6 °F 63% 29.78 in 10.0 mi NNW 20.7 mph 31.1 mph N/A   Overcast